Weather History for Moses Lake, WA

Change the Weather History Date:

Tuesday, August 13, 2013

  Actual Average Record
Temperature  
Mean Temperature 74 °F 73 °F  
Max Temperature 92 °F 89 °F 104 °F (2004)
Min Temperature 56 °F 56 °F 46 °F (1985)
Degree Days  
Heating Degree Days 0 0  
Month to date heating degree days 0 0  
Since 1 June heating degree days 49 63  
Since 1 July heating degree days 0 8  
Cooling Degree Days 9 8  
Month to date cooling degree days 130 112  
Year to date cooling degree days 663 466  
Since 1 June cooling degree days 613 441  
Growing Degree Days 23 (Base 50)    
Moisture  
Dew Point 51 °F    
Average Humidity 53    
Maximum Humidity 86    
Minimum Humidity 20    
Precipitation  
Precipitation 0.00 in 0.01 in 0.03 in (2014)
Month to date precipitation 0.43 0.10  
Year to date precipitation 4.18 5.28  
Sea Level Pressure  
Sea Level Pressure 29.95 in    
Wind  
Wind Speed 3 mph (SSE)    
Max Wind Speed 13 mph    
Max Gust Speed 15 mph    
Visibility 10 miles    
Events      
T = Trace of Precipitation, MM = Missing Value Source: NWS Daily Summary

Daily Weather History Graph

Daily Weather History Graph

Search for Another Location

Airport:

Trip Planner

Search our weather history database for the weather conditions in past years. The results will help you decide how hot, cold, wet, or windy it might be!

Date:

Astronomy

Aug. 13, 2013 Rise Set
Actual Time 5:51 AM PDT 8:11 PM PDT
Civil Twilight 5:18 AM PDT 8:45 PM PDT
Nautical Twilight 4:35 AM PDT 9:27 PM PDT
Astronomical Twilight 3:47 AM PDT 10:14 PM PDT
Moon 1:24 PM PDT (8/13) 11:16 PM PDT (8/13)
Length of Visible Light 15h 27m
Length of Day
14h 19m
Waxing Crescent, 43% of the Moon is Illuminated
Aug 13
Waxing Crescent
Aug 14
First Quarter
Aug 20
Full
Aug 28
Last Quarter
Sep 5
New

Hourly Weather History & Observations

Time (PDT) Temp. Heat Index Dew Point Humidity Pressure Visibility Wind Dir Wind Speed Gust Speed Precip Events Conditions
12:52 AM 69.1 °F - 55.0 °F 61% 29.93 in 10.0 mi SE 4.6 mph - N/A   Clear
1:52 AM 64.9 °F - 55.0 °F 70% 29.93 in 10.0 mi ENE 3.5 mph - N/A   Clear
2:52 AM 64.9 °F - 54.0 °F 68% 29.93 in 10.0 mi Calm Calm - N/A   Clear
3:52 AM 63.0 °F - 55.0 °F 75% 29.94 in 10.0 mi Calm Calm - N/A   Clear
4:52 AM 55.9 °F - 52.0 °F 87% 29.95 in 10.0 mi North 4.6 mph - N/A   Clear
5:52 AM 57.0 °F - 51.1 °F 81% 29.97 in 10.0 mi ENE 3.5 mph - N/A   Clear
6:52 AM 61.0 °F - 54.0 °F 78% 29.99 in 10.0 mi Calm Calm - N/A   Clear
7:52 AM 66.9 °F - 57.9 °F 73% 30.00 in 10.0 mi Calm Calm - N/A   Clear
8:52 AM 70.0 °F - 55.9 °F 61% 30.01 in 10.0 mi Calm Calm - N/A   Clear
9:52 AM 75.9 °F - 54.0 °F 46% 30.02 in 10.0 mi NE 3.5 mph - N/A   Clear
10:52 AM 80.1 °F 80.0 °F 54.0 °F 40% 30.02 in 10.0 mi South 3.5 mph - N/A   Clear
11:52 AM 82.9 °F 81.8 °F 53.1 °F 36% 30.01 in 10.0 mi Variable 3.5 mph - N/A   Clear
12:52 PM 86.0 °F - 50.0 °F 29% 29.99 in 10.0 mi SSW 9.2 mph - N/A   Clear
1:52 PM 87.1 °F 84.9 °F 53.1 °F 31% 29.99 in 10.0 mi Variable 6.9 mph - N/A   Clear
2:52 PM 90.0 °F - 46.0 °F 22% 29.96 in 10.0 mi South 3.5 mph - N/A   Clear
3:52 PM 91.0 °F - 48.0 °F 23% 29.95 in 10.0 mi South 6.9 mph - N/A   Clear
4:52 PM 91.0 °F - 45.0 °F 20% 29.94 in 10.0 mi WSW 5.8 mph - N/A   Clear
5:52 PM 90.0 °F - 46.9 °F 23% 29.92 in 10.0 mi SSW 4.6 mph - N/A   Clear
6:52 PM 90.0 °F - 44.1 °F 20% 29.90 in 10.0 mi SW 3.5 mph - N/A   Clear
7:52 PM 87.1 °F - 45.0 °F 23% 29.89 in 10.0 mi Calm Calm - N/A   Clear
8:52 PM 84.0 °F - 45.0 °F 25% 29.89 in 10.0 mi Calm Calm - N/A   Clear
9:52 PM 75.9 °F - 51.1 °F 42% 29.90 in 10.0 mi ENE 3.5 mph - N/A   Clear
10:52 PM 72.0 °F - 54.0 °F 53% 29.90 in 10.0 mi Calm Calm - N/A   Clear
11:52 PM 66.9 °F - 52.0 °F 59% 29.91 in 10.0 mi North 4.6 mph - N/A   Clear